Location: Newark
(43.0000°N, 1.6781°W)
Time: 11:26:14
(UTC+00:00)

Vanguard 1 Rocket - Pass Details

Date: 15 October 2022
Orbit: 650 x 4225 km, 34.3° (Epoch: 04 December)

Event Time Altitude Azimuth Distance (km) Brightness Sun altitude
Rises 18:39:32 0° 260° (W) 8,414 14.0 -14.5°
Reaches altitude 10° 18:45:25 10° 258° (WSW) 7,430 13.3 -15.6°
Maximum altitude 19:10:36 66° 184° (S) 3,632 10.3 -20.2°
Enters shadow 19:21:33 28° 113° (ESE) 4,089 10.1 -22.2°
